Weather in Hamamatsu

Japan     34°45′06″N   137°44′19″E
temp.,
°C
wind,
m/s
gust,
m/s
humid.,
%
clouds,
%
prec.,
mm/h
press.,
hPa
HPBL,
m
6 march, sat
sat600:00+13ne3776100 0.1 1019362
03:00+12nne2481100 0.8 1017181
06:00+12n2278100 0.1 101780
09:00+15wnw2361100 0.1 1017287
12:00+21nw144693 0.0 10161086
15:00+21nw353897 0.0 10151255
18:00+18ene144892 0.0 1018562
21:00+16s146096 0.1 1021585
7 march, sun
sun700:00+14ese3569100 0.3 1022735
03:00+13se3568100 1.4 1023807
06:00+11ese3561100 0.3 1025644
09:00+10e465599 0.4 1027571
12:00+10e4655100 0.1 1026728
15:00+12ese4550100 0.1 1025800
18:00+11ese3458100 0.0 1026773
21:00+10e3454100 0.0 1026487
8 march, mon
mon800:00+10ene3456100 0.0 1026377
03:00+10ene2359100 0.0 1024284
06:00+10ne126590 0.1 1025166
09:00+12e115891 0.1 1025405
12:00+15sw335099 0.0 10231140
15:00+15s555799 0.0 1022804
18:00+13s3467100 0.1 1023723
21:00+12e2373100 0.6 1025329
9 march, tue
tue900:00+11ne24700 0.1 1024189
03:00+10nne23715 0.1 1024122
06:00+10nne236442 0.0 1025119
09:00+13ne235069 0.0 1025387
12:00+17se223997 0.0 10221164
15:00+18se444268 0.0 10201109
18:00+15sse2359100 0.0 1020694
21:00+15nnw1258100 0.4 1020409
10 march, wed
wed1000:00+13nw246299 0.0 1019243
03:00+12nw376291 0.0 1018303
06:00+11wnw611550 0.0 1018502
09:00+14nw34460 0.0 1019555
12:00+18wnw56240 0.0 10191378
15:00+19wnw911220 0.0 10181068
18:00+16nnw47280 0.0 1021560
21:00+13nnw46370 0.0 1024323